100LL.CA
Aviation Fuel Pricing for Canadians
Please upgrade your browser - Tested with IE9, FireFox, Chrome, Safari

Fuel Prices Airport Info Airport List METAR / TAF Kneeboard RSS

Reference Airport: Mayo, YT
N 63 37 00   W 135 52 08

CYMA Mayo, YT
WEATHER
METARCYMA 271900Z 10007KT 060V130 20SM FEW050 OVC150 13/M07 A3008 RMK CU2AS6 SLP208
TAFTAF CYMA 271741Z 2718/2806 VRB03KT P6SM FEW080 BKN150 FM272000 07008KT P6SM BKN080 FM280100 07008KT P6SM SCT080 RMK NXT FCST BY 280000Z
REF N 63 37 00  W 135 52 08    1.5N    22E (2013)
UTC-8(7)    Elev 1653    A5028 LO5 HI2 CAP
OPR Govt of Yukon 867-634-2046/2035
Reg
PFA-1 C-2,3,4,5
FLT PLN NOTAM FILE CYMA
FIC Kamloops 866-WXBRIEF (Toll free within Canada) or 866-541-4101 (Toll free within Canada & USA)
CARS867-996-2334 Fax 867-996-2134
WXMETAR H24. TAF H24, issue times: 00, 06, 12, 18Z.
SERVICES Call out chg may be levied for one or more svcs. Fuel stor by permit only 867-634-2035/2046
FUEL100LL, JA-1
PRICES100LL public: 2.400; current as of 2013-06-09.
S4,5,6
RWY DATARwy 07(069)/25(249) 4843x100 gravel Rwy 07 down 0.34%
RCRCARS
LIGHTING07-(TE LO) P2, 25-(TE LO) P2
COMM
RCOWhitehorse rdo 122.375 (FISE) 126.7 (bcst)
MFaprt rdo 122.1 5NM 4700 ASL (CAR 602.98)
PALEdmonton Ctr 134.65
APRT RDO122.1 (V)
NAV
NDBMA 365 (M) N63 37 40 W135 53 42
CAUTIONFrost heaves 2000' fr thld Rwy 25.
Effective 0901Z 0901Z 27 April 2017 to 0901Z 22 June 2017